www.pogodaiklimat.ru

Погода и климат >> Архив погоды >> Казахстан >> Астана


АРХИВ ПОГОДЫ в Астане

Время (UTC), дата Ветер
(напр.,м/с)
 
Видим.   Явления Облачность Т
(С)
Тd
(С)
f
(%)
Тe
(С)
Тes
(С)
Комфортность P
(гПа)
Po
(гПа)
Тmin
(С)
Tmax
(С)
R
(мм)
R24
(мм)
S
(см)
12 12.01 Ю 1 10 км {снег} 6/0
[Ac trans]
-15.6 -18.1 81 -18 -18 по сезону 1034.6 988.0
15 12.01 Ю 1 н/о ледяные иглы ясно -15.6 -17.7 84 -18 -18 по сезону 1035.3 988.7 -15.4
18 12.01 Ю 2 н/о 10/0
[Ci]
-14.9 -17.0 84 -20 -20 по сезону 1035.3 988.8 -15.4 0.0
21 12.01 Ю 2 н/о 10/0
[Ci]
-14.7 -17.0 83 -20 -20 по сезону 1035.5 989.0
00 13.01 Ю 2 н/о 10/0
[Ci]
-14.8 -16.9 84 -20 -20 по сезону 1034.7 988.2
03 13.01 Ю 2 10 км 10/0
[Ci]
-14.3 -17.5 77 -19 -19 по сезону 1034.4 988.0 20
06 13.01 Ю 2 10 км 10/0
[Ac lent Ci]
-11.3 -15.3 72 -16 -15 по сезону 1033.9 988.1 -15.6 0.0
09 13.01 Ю 2 10 км 10/0
[Ac As Ci]
-9.8 -13.4 75 -14 -14 по сезону 1032.7 987.2
12 13.01 Ю 2 10 км 10/0
[Ac trans Ci]
-9.9 -13.0 78 -14 -14 по сезону 1031.9 986.4
15 13.01 ЮЗ 3 н/о 10/0
[Ac As]
-8.8 -12.6 74 -15 -15 по сезону 1030.1 984.9 -8.8
18 13.01 ЮЗ 2 н/о 10/0
[Ac As]
-8.7 -12.5 74 -13 -13 тепло 1028.6 983.5 -8.8
21 13.01 Ю 3 н/о 10/10 1000 м
[Sc]
-8.5 -12.7 72 -14 -14 тепло 1026.7 981.7
00 14.01 Ю 3 н/о 10/10 1000 м
[Sc]
-7.7 -11.7 73 -13 -13 тепло 1024.1 979.3
03 14.01 Ю 5 10 км позёмок 10/0
[Ac As]
-6.2 -10.1 74 -13 -13 тепло 1021.2 976.8 20
06 14.01 ЮВ 7 10 км сильный позёмок 10/0
[Ac As]
-4.9 -8.1 78 -13 -13 тепло 1019.1 975.0 -9.3
09 14.01 ЮВ 3 10 км позёмок 10/0
[Ac As]
-2.9 -8.6 65 -8 -7 тепло 1015.3 971.7
12 14.01 Ю 4 10 км позёмок 10/0
[Ac As]
-4.5 -10.0 65 -10 -10 тепло 1013.9 970.1
15 14.01 Ю 3 н/о {метель} 10/0
[As trans]
-4.2 -8.7 71 -9 -9 тепло 1012.6 968.9 -2.9
18 14.01 ЮЗ 3 н/о {метель} 10/0
[As trans]
-5.1 -9.1 73 -10 -10 тепло 1012.7 968.8 -2.9
21 14.01 Ю 3 н/о 10/10 1000 м
[Sc]
-6.1 -9.1 79 -12 -12 тепло 1012.5 968.5
00 15.01 Ю 1 н/о 10/10 1000 м
[Sc]
-6.4 -7.9 89 -9 -9 тепло 1012.8 968.7
03 15.01 Ю 1 н/о 10/10 1000 м
[Sc]
-6.4 -7.9 89 -9 -9 тепло 1012.8 968.7
06 15.01 ЮЗ 1 4000 м дымка 10/10 200 м
[St]
-6.7 -7.5 94 -9 -9 тепло 1013.4 969.3 17
09 15.01 СВ 2 4000 м снежные зёрна 10/10 300 м
[St]
-4.5 -5.4 93 -9 -9 тепло 1013.7 969.9
12 15.01 СВ 2 4000 м снежные зёрна 10/10 300 м
[St]
-6.2 -7.7 89 -11 -11 тепло 1016.4 972.2
15 15.01 С 3 н/о {снег} 10/10 600 м
[Sc]
-7.8 -9.6 87 -14 -14 по сезону 1017.8 973.3 -4.1
18 15.01 С 3 н/о {снег} 10/10 300 м
[St]
-9.3 -10.0 95 -15 -15 по сезону 1019.3 974.5 -4.1 0.0
21 15.01 В 2 н/о 10/10 300 м
[St]
-10.1 -11.1 92 -15 -15 по сезону 1020.8 975.8
00 16.01 СВ 1 н/о 10/10 300 м
[St]
-10.2 -11.4 91 -13 -13 тепло 1021.9 976.8
03 16.01 СВ 1 10 км 10/10 1000 м
[Sc]
-9.9 -11.6 87 -12 -12 тепло 1023.7 978.6 17
06 16.01 СВ 1 4000 м слаб. снег 10/10 300 м
[Sc]
-8.2 -11.4 78 -10 -10 тепло 1025.7 980.8 -10.3
09 16.01 Ю 1 10 км {снег} 10/6 1000 м
[Sc Ci]
-6.7 -11.3 70 -9 -8 тепло 1024.6 980.0
12 16.01 С 1 10 км {снег} 8/8 1000 м
[Sc]
-10.7 -13.0 83 -13 -13 по сезону 1028.4 982.9
15 16.01 н/о дым ясно -14.7 -16.8 84 1030.6 984.3 -6.2
18 16.01 штиль 0 н/о дым ясно -15.8 -18.2 82 -16 -16 по сезону 1031.5 985.0 -6.2 0.0
21 16.01 штиль 0 н/о дым 10/10 1000 м
[Sc]
-17.7 -20.2 81 -18 -18 по сезону 1032.5 985.6
00 17.01 штиль 0 н/о дым 8/8 1000 м
[Sc]
-18.2 -20.8 80 -18 -18 по сезону 1032.9 985.9
03 17.01 штиль 0 4000 м дым ясно -18.3 -20.8 81 -18 -18 по сезону 1033.4 986.4 17
06 17.01 Ю 1 4000 м слаб. снег 9/9 300 м
[St]
-11.1 -12.6 89 -13 -13 тепло 1032.1 986.4 -18.7
09 17.01 Ю 1 4000 м дымка {снег} 8/8 300 м
[St]
-7.7 -9.1 90 -10 -10 тепло 1029.6 984.6
12 17.01 ЮВ 2 10 км {снег} 6/6 300 м
[St]
-8.6 -10.1 89 -13 -13 по сезону 1028.9 983.8
15 17.01 Ю 1 н/о 10/0
[Cs]
-9.2 -11.7 82 -12 -12 тепло 1028.1 982.9 -7.4
18 17.01 Ю 2 н/о 10/0
[Cs]
-8.1 -10.8 81 -13 -13 тепло 1026.4 981.5 -7.4 0.0
21 17.01 Ю 3 н/о 10/0
[Cs]
-8.2 -11.4 78 -14 -14 тепло 1025.8 980.9
00 18.01 Ю 2 н/о 10/10 300 м
[St]
-8.4 -11.1 81 -13 -13 тепло 1024.3 979.4
03 18.01 Ю 2 10 км 10/0
[Ci fib]
-9.0 -11.4 83 -13 -13 тепло 1024.5 979.5
06 18.01 ЮЗ 2 10 км 10/0
[Cs]
-6.0 -9.0 79 -10 -9 тепло 1023.3 978.8 -9.2
09 18.01 Ю 2 10 км 10/0
[Cs]
-2.4 -7.5 68 -6 -5 тепло 1021.8 978.0
12 18.01 Ю 1 10 км 10/0
[Cs]
-4.4 -8.2 75 -7 -7 тепло 1021.8 977.7
15 18.01 ЮЗ 2 н/о 10/0
[As trans]
-4.7 -8.6 74 -9 -9 тепло 1021.4 977.2 -2.0
18 18.01 штиль 0 н/о 10/0
[Cs]
-6.0 -10.3 72 -7 -7 тепло 1020.9 976.5 -2.0
21 18.01 ЮВ 1 н/о 10/0
[As trans]
-6.1 -10.9 69 -8 -8 тепло 1020.4 976.0
00 19.01 ЮЗ 2 н/о 10/0
[As trans]
-7.3 -13.1 63 -11 -11 тепло 1019.7 975.2
03 19.01 Ю 1 10 км 10/0
[Ac As]
-8.7 -13.0 71 -11 -11 тепло 1020.1 975.3 17
06 19.01 Ю 2 10 км 10/0
[Ac As Ci]
-6.7 -10.3 76 -11 -10 тепло 1020.3 975.9 -8.7
09 19.01 Ю 2 4000 м слаб. снег 10/10 300 м
[St]
-4.9 -5.9 93 -9 -9 тепло 1019.3 975.2

 

Местоположение метеостанции Астана (город Астана, Казахстан): широта 51.13 долгота 71.37 высота над уровнем моря 350 м.

В архиве по умолчанию представлена погода в Астане за последнюю неделю. Архивные данные за месяц целиком и за предыдущие месяцы, начиная с января 2011 года, Вы можете получить, выбрав интересующий диапазон дат из раскрывающегося списка и нажав кнопку "Ввод!".


*Определитесь, кто Вы:
робот инопланетянин человек

Внимание! Время в таблицах - всемирное. Для получения местного времени необходимо прибавить поправку, которая равна 6 ч.

Смотрите также архив погоды в соседних городах и на ближайших метеорологических станциях:

Погода в Астане 2 (город Астана, Казахстан) (4 км)
Погода в Арнасае (Акмолинская область, Казахстан) (51 км)
Погода в Шортанды (Акмолинская область, Казахстан) (65 км)
Погода в Аршалы (Акмолинская область, Казахстан) (73 км)
Погода в Новомарковке (Акмолинская область, Казахстан) (92 км)
Погода в Киевке (Карагандинская область, Казахстан) (99 км)
Погода в Акколе (Акмолинская область, Казахстан) (101 км)
Погода в Осакаровке (Карагандинская область, Казахстан) (105 км)
Погода в Кургальджин (Акмолинская область, Казахстан) (114 км)
Погода в Жалтыре (Акмолинская область, Казахстан) (122 км)

Пояснения к столбцам:

Ветер - указаны скорость ветра в м/с - средняя за 10 мин, порывы в срок и между сроками (в фигурных скобках) и направление, откуда дует ветер: С - северный, СВ - северо-восточный, В - восточный, ЮВ - юго-восточный, Ю - южный, ЮЗ - юго-западный, З - западный, СЗ - северо-западный.
Видимость - горизонтальная дальность видимости в метрах или километрах. При видимости от 1 до 10 км при отсутствии осадков обычно наблюдается дымка, при ухудшении видимости до 1 км и менее - туман. В сухую погоду видимость может ухудшаться дымом, пылью или мглою.
Явления - указаны атмосферные явления, наблюдавшиеся в срок или в последний час перед сроком; фигурными скобками обозначены явления, наблюдавшиеся между сроками (за 1-3 часа до срока); квадратными скобками обозначены град или гололедные отложения с указанием их диаметра в мм.
Облачность - указаны через наклонную черту общая и нижняя облачность в баллах и высота нижней границы облаков в метрах; квадратными скобками обозначены формы облаков: Ci - перистые, Cs - перисто-слоистые, Cc - перисто-кучевые, Ac - высококучевые, As - высокослоистые, Sc - слоисто-кучевые, Ns - слоисто-дождевые, Cu - кучевые, Cb - кучево-дождевые. Подробнее классификацию облаков см. в Атласе облаков (PDF).
T - Температура воздуха - температура, измеренная на высоте 2 м над землей.
Td - Температура точки росы - температура, при понижении до которой содержащийся в воздухе водяной пар достигнет насыщения.
f - Относительная влажность воздуха - влажноcть воздуха, измеренная на высоте 2 м над землей.
Te - Эффективная температура - температура, которую ощущает одетый по сезону человек в тени. Характеристика душности погоды. При расчете учитывается влияние влажности воздуха и скорости ветра на теплоощущения человека.
Tes - Эффективная температура на солнце - температура, которую ощущает человек, с поправкой на солнечный нагрев. Характеристика знойности погоды. Зависит от высоты солнца над горизонтом, облачности и скорости ветра. Ночью, в пасмурную погоду, а также при ветре 12 м/с и более поправка равна нулю.
P - Атмосферное давление - приведенное к уровню моря атмосферное давление.
Po - Атмосферное давление - измеренное на уровне метеостанции атмосферное давление.
Tmin - Минимальная температура - минимум температуры воздуха на высоте 2 м над землей.
Tmax - Максимальная температура - максимум температуры воздуха на высоте 2 м над землей.
R - Количество осадков - Количество выпавших осадков за период времени, мм. При наведении курсора мыши на число - период времени, за который выпало указанное количество осадков.
R24 - Количество осадков - Количество выпавших осадков за 24 часа, мм.
S - Снежный покров - Высота снежного покрова, см. При наведении курсора мыши на число - состояние снежного покрова и степень покрытия местности в баллах.